TimeMDT,TemperatureF,Dew PointF,Humidity,Sea Level PressureIn,VisibilityMPH,Wind Direction,Wind SpeedMPH,Gust SpeedMPH,PrecipitationIn,Events,Conditions,WindDirDegrees,DateUTC
12:54 AM,61.0,46.0,58,29.91,10.0,ESE,3.5,-,N/A,,Clear,120,2013-08-16 06:54:00
1:54 AM,61.0,45.0,56,29.91,10.0,ESE,5.8,-,N/A,,Clear,120,2013-08-16 07:54:00
2:54 AM,62.1,44.1,52,29.90,10.0,SE,4.6,-,N/A,,Clear,140,2013-08-16 08:54:00
3:54 AM,59.0,44.1,58,29.90,10.0,SE,6.9,-,N/A,,Clear,140,2013-08-16 09:54:00
4:54 AM,59.0,43.0,55,29.89,10.0,SE,6.9,-,N/A,,Clear,130,2013-08-16 10:54:00
5:54 AM,57.9,43.0,58,29.89,10.0,SE,6.9,-,N/A,,Clear,130,2013-08-16 11:54:00
6:54 AM,57.9,44.1,60,29.91,10.0,SSE,6.9,-,N/A,,Clear,150,2013-08-16 12:54:00
7:54 AM,62.1,46.0,56,29.92,10.0,SSE,6.9,-,N/A,,Clear,150,2013-08-16 13:54:00
8:54 AM,69.1,48.9,49,29.92,10.0,East,3.5,-,N/A,,Clear,90,2013-08-16 14:54:00
9:54 AM,73.0,54.0,51,29.91,10.0,Calm,Calm,-,N/A,,Clear,0,2013-08-16 15:54:00
10:54 AM,82.0,54.0,38,29.88,10.0,Calm,Calm,-,N/A,,Clear,0,2013-08-16 16:54:00
11:54 AM,88.0,54.0,31,29.85,10.0,Calm,Calm,-,N/A,,Clear,0,2013-08-16 17:54:00
12:54 PM,90.0,46.0,22,29.84,10.0,SSE,10.4,-,N/A,,Clear,150,2013-08-16 18:54:00
1:54 PM,93.0,39.9,16,29.82,10.0,Calm,Calm,-,N/A,,Clear,0,2013-08-16 19:54:00
2:54 PM,93.0,37.0,14,29.81,10.0,SW,9.2,-,N/A,,Clear,230,2013-08-16 20:54:00
3:54 PM,93.0,33.1,12,29.81,10.0,South,10.4,-,N/A,,Clear,180,2013-08-16 21:54:00
4:54 PM,93.0,35.1,13,29.80,10.0,SSW,13.8,-,N/A,,Clear,210,2013-08-16 22:54:00
5:54 PM,91.0,39.0,16,29.80,10.0,SSW,13.8,-,N/A,,Clear,210,2013-08-16 23:54:00
6:54 PM,84.9,42.1,22,29.81,10.0,West,8.1,-,N/A,,Clear,260,2013-08-17 00:54:00
7:54 PM,86.0,43.0,22,29.82,10.0,West,9.2,-,N/A,,Clear,280,2013-08-17 01:54:00
8:54 PM,78.1,45.0,31,29.85,10.0,Calm,Calm,-,N/A,,Clear,0,2013-08-17 02:54:00
9:54 PM,71.1,45.0,39,29.88,10.0,South,3.5,-,N/A,,Clear,180,2013-08-17 03:54:00
10:54 PM,66.9,44.1,44,29.87,10.0,South,4.6,-,N/A,,Clear,190,2013-08-17 04:54:00
11:54 PM,63.0,46.0,54,29.87,10.0,SE,4.6,-,N/A,,Clear,140,2013-08-17 05:54:00